Regional Weather Roundup
Issued by NWS

Home | Current Version | Previous Version | Text Only | Print | Product List | Glossary On
Versions: 1 2 3 4 5 6 7 8 9 10 11 12 13 14 15 16 17 18 19 20 21 22 23 24 25 26 27 28 29 30 31 32 33 34 35 36 37 38 39 40 41 42 43 44 45 46 47 48 49 50
000
ASUS46 KSTO 011904
RWRCA

NORTHERN AND CENTRAL CA REGIONAL WEATHER ROUNDUP
NATIONAL WEATHER SERVICE SACRAMENTO CA
1200 PM PDT WED JUL 01 2015

NOTE: FAIR INDICATES FEW OR NO CLOUDS BELOW 12,000 FEET WITH NO
SIGNIFICANT WEATHER AND/OR OBSTRUCTIONS TO VISIBILITY.

CAZ001-003-012000-
NORTHWEST AREA

CITY           SKY/WX    TMP DP  RH WIND       PRES   REMARKS
CRESCENT CITY  CLOUDY    59  54  83 S12       29.90R
UKIAH          SUNNY     96  50  20 SE7       29.86S HX  93
$$

CAZ006-505>513-012000-
BAY AREA

CITY           SKY/WX    TMP DP  RH WIND       PRES   REMARKS
SANTA ROSA     MOSUNNY   81  56  42 S8        29.91R
SAN RAFAEL     N/A       71  MM  MM MISG
NAPA           MOSUNNY   75  58  55 SW10      29.93R
CONCORD        SUNNY     89  57  33 NW14      29.88S
OAKLAND CITY   N/A       74  MM  MM MISG
OAKLAND        PTSUNNY   73  57  57 W15       29.93R
SAN FRAN CITY  N/A       64  MM  72 MISG
SAN FRAN ARPT  PTSUNNY   73  56  54 NW13      29.92S
LIVERMORE      SUNNY     98  46  17 S7        29.88S HX  94
HAYWARD        SUNNY     77  60  55 W9        29.91S
REDWOOD CITY   N/A       MM  MM  MM MISG
MOFFETT ARPT   SUNNY     82  63  52 N8        29.91S
SAN JOSE ARPT  PTSUNNY   84  62  47 NW13      29.89S
$$
CAZ034-037-514>518-012000-
CENTRAL COAST

CITY           SKY/WX    TMP DP  RH WIND       PRES   REMARKS
WATSONVILLE    MOSUNNY   84  59  42 S12       29.94S
SALINAS        PTSUNNY   75  56  51 W9        29.93S
MONTEREY       PTSUNNY   67  54  63 VRB5      29.95S
SAN LUIS OBISP CLOUDY    73  55  53 NW6       29.93S
SANTA MARIA    CLOUDY    71  58  63 NW3       29.93F
$$
CAZ015-016-012000-
NORTHERN SACRAMENTO VALLEY

CITY           SKY/WX    TMP DP  RH WIND       PRES   REMARKS
REDDING        MOSUNNY  103  52  18 CALM      29.80F HX 100
RED BLUFF      MOSUNNY  106  47  13 VRB5      29.81S HX 102
OROVILLE       PTSUNNY   98  62  30 S13       29.86R HX  99
$$
CAZ016>018-012000-
SOUTHERN SACRAMENTO VALLEY

CITY           SKY/WX    TMP DP  RH WIND       PRES   REMARKS
AUBURN         PTSUNNY   93  52  24 S8        29.97R HX  90
BEALE AFB      PTSUNNY   95  57  27 S14       29.85R HX  94
LINCOLN        FAIR      97  45  16 SE13      29.86S HX  93
MARYSVILLE     PTSUNNY   96  57  27 S12       29.86R HX  95
SAC INTL ARPT  PTSUNNY   89  58  34 S15       29.87R
MATHER AIRPORT PTSUNNY   91 N/A N/A S10       29.88R
DOWNTOWN SAC   N/A       90  MM  MM MISG
SAC EXEC ARPT  PTSUNNY   88  56  33 S8        29.88R
VACAVILLE      MOSUNNY   93  48  21 S8G17     29.88R
TRAVIS AFB     MOSUNNY   89  47  23 W17       29.86R
$$
CAZ019>021-012000-
SAN JOAQUIN VALLEY

CITY           SKY/WX    TMP DP  RH WIND       PRES   REMARKS
STOCKTON       PTSUNNY   94  54  25 SE9       29.88S HX  92
MODESTO        PTSUNNY   94  52  24 E12       29.88S HX  91
MERCED         CLOUDY    94  47  20 E13G20    29.89S HX  90
LEMOORE        CLOUDY    93  60  33 E10       29.90S HX  93
FRESNO         CLOUDY    94  51  23 NW3       29.91F HX  91
HANFORD        CLOUDY    90  62  39 N3        29.89F HX  90
PORTERVILLE    CLOUDY    91  63  38 W12       29.90S HX  92
BAKERSFIELD    PTSUNNY   98  59  27 VRB3      29.87S HX  98
$$
CAZ011-012-071-012000-
NORTHERN MOUNTAINS

CITY           SKY/WX    TMP DP  RH WIND       PRES   REMARKS
YREKA          SUNNY     92  52  25 S5        29.99F
MOUNT SHASTA   MOSUNNY   94  51  23 CALM      30.05S HX  91
ALTURAS        MOSUNNY   92  45  19 CALM      30.11F
$$
CAZ011-012-071-012000-
SIERRA NEVADA MTNS

CITY           SKY/WX    TMP DP  RH WIND       PRES   REMARKS
BLUE CANYON    PTSUNNY   81  55  40 S12       30.24R
TRUCKEE        PTSUNNY   84  50  30 S3        30.25F
TAHOE VLY ARPT CLOUDY    82  53  36 NE3       30.28R
MAMMOTH LAKES  FAIR      75  48  38 E5        30.37F
$$



USA.gov is the U.S. government's official web portal to all federal, state and local government web resources and services.